Location: Neuvy Saint Sepulchre
(46.5953°N, 1.8122°E)
Time: 14:17:40
(UTC+01:00)

ISS - Pass Details

Date: 26 November 2019
Orbit: 411 x 421 km, 51.6° (Epoch: 10 December)

Event Time Altitude Azimuth Distance (km) Brightness Sun altitude
Rises 18:22:26 0° 238° (WSW) 2,346 1.8 -12.2°
Reaches altitude 10° 18:24:30 10° 237° (WSW) 1,488 0.4 -12.5°
Maximum altitude 18:27:50 77° 152° (SSE) 433 -3.8 -13.1°
Enters shadow 18:29:39 25° 68° (ENE) 885 -2.7 -13.4°
